FDB354 OPIS-OMDB

Flight info

Callsign FDB354
Flight time 2h 54m
Altitude 38000
Route KALMI J139 HANGU G325 PG T385 TAPDO A454 PASOV B540 KUPMA/N0435F240 B540 MIVEK P574 IMPED
Aircraft B38M/M-SDE1FGHILORVWXY/HB1

Departure

Time 2026-04-26 01:11
Airport Islamabad International Airport (OPIS)

Arrival

Time 2026-04-26 04:06
Airport Dubai International Airport (OMDB)
Time Latitude Longitude Altitude Speed Heading
2026-04-26 01:03 33.55352 72.83380 1772 ft 0 kts 100°
2026-04-26 01:05 33.55350 72.83388 1772 ft 2 kts 101°
2026-04-26 01:05 33.55345 72.83423 1775 ft 8 kts 101°
2026-04-26 01:06 33.55331 72.83505 1772 ft 11 kts 108°
2026-04-26 01:06 33.55264 72.83541 1762 ft 12 kts 192°
2026-04-26 01:06 33.55173 72.83519 1774 ft 14 kts 192°
2026-04-26 01:06 33.55070 72.83514 1772 ft 16 kts 148°
2026-04-26 01:07 33.55033 72.83639 1774 ft 17 kts 101°
2026-04-26 01:07 33.55010 72.83786 1771 ft 19 kts 100°
2026-04-26 01:07 33.54986 72.83946 1771 ft 20 kts 100°
2026-04-26 01:07 33.54960 72.84116 1771 ft 22 kts 102°
2026-04-26 01:08 33.54933 72.84299 1774 ft 23 kts 102°
2026-04-26 01:08 33.54908 72.84458 1773 ft 17 kts 100°
2026-04-26 01:08 33.54871 72.84550 1770 ft 13 kts 159°
2026-04-26 01:08 33.54813 72.84542 1769 ft 7 kts 192°
2026-04-26 01:09 33.54808 72.84541 1771 ft 0 kts 192°
2026-04-26 01:09 33.54791 72.84536 1769 ft 8 kts 192°
2026-04-26 01:10 33.54715 72.84514 1769 ft 9 kts 219°
2026-04-26 01:10 33.54709 72.84438 1768 ft 11 kts 280°
2026-04-26 01:10 33.54742 72.84226 1764 ft 57 kts 280°
2026-04-26 01:10 33.54859 72.83481 1768 ft 122 kts 281°
2026-04-26 01:11 33.55053 72.82267 1794 ft 169 kts 280°
2026-04-26 01:11 33.55294 72.80822 2300 ft 183 kts 281°
2026-04-26 01:11 33.55534 72.79316 3048 ft 181 kts 285°
2026-04-26 01:11 33.55779 72.77821 3691 ft 186 kts 285°
2026-04-26 01:12 33.56013 72.76234 4125 ft 206 kts 284°
2026-04-26 01:12 33.56271 72.74412 4350 ft 238 kts 277°
2026-04-26 01:12 33.56079 72.72347 4800 ft 261 kts 257°
2026-04-26 01:12 33.55386 72.70255 5349 ft 278 kts 246°
2026-04-26 01:13 33.54645 72.68097 6076 ft 280 kts 262°
2026-04-26 01:13 33.54561 72.65777 6849 ft 281 kts 272°
2026-04-26 01:13 33.54561 72.63414 7624 ft 283 kts 272°
2026-04-26 01:13 33.54568 72.61047 8421 ft 286 kts 272°
2026-04-26 01:14 33.54582 72.58662 9285 ft 285 kts 272°
2026-04-26 01:14 33.54599 72.56288 10135 ft 286 kts 273°
2026-04-26 01:14 33.54620 72.53836 10595 ft 303 kts 272°
2026-04-26 01:14 33.54643 72.51235 10899 ft 323 kts 272°
2026-04-26 01:15 33.54667 72.48463 11251 ft 339 kts 272°
2026-04-26 01:15 33.54691 72.45601 11788 ft 347 kts 272°
2026-04-26 01:15 33.54715 72.42706 12573 ft 349 kts 272°
2026-04-26 01:15 33.54729 72.39781 13299 ft 353 kts 272°
2026-04-26 01:16 33.54740 72.36866 13998 ft 356 kts 272°
2026-04-26 01:16 33.54752 72.33884 14692 ft 359 kts 272°
2026-04-26 01:16 33.54763 72.30889 15390 ft 362 kts 272°
2026-04-26 01:16 33.54774 72.27859 16064 ft 365 kts 272°
2026-04-26 01:17 33.54784 72.24802 16724 ft 368 kts 271°
2026-04-26 01:17 33.54793 72.21718 17358 ft 371 kts 271°
2026-04-26 01:17 33.54802 72.18616 17987 ft 374 kts 271°
2026-04-26 01:17 33.54810 72.15478 18551 ft 378 kts 271°
2026-04-26 01:18 33.54817 72.12316 19085 ft 380 kts 271°
2026-04-26 01:18 33.54824 72.09134 19633 ft 383 kts 271°
2026-04-26 01:18 33.54830 72.05928 20172 ft 385 kts 271°
2026-04-26 01:18 33.54812 72.02713 20697 ft 389 kts 268°
2026-04-26 01:19 33.54616 71.99466 21224 ft 391 kts 268°
2026-04-26 01:19 33.54426 71.96197 21747 ft 394 kts 268°
2026-04-26 01:19 33.54243 71.92937 22259 ft 397 kts 268°
2026-04-26 01:19 33.54062 71.89632 22756 ft 400 kts 268°
2026-04-26 01:20 33.53879 71.86293 23268 ft 402 kts 268°
2026-04-26 01:20 33.53680 71.82946 23717 ft 405 kts 268°
2026-04-26 01:20 33.53478 71.79568 24139 ft 407 kts 268°
2026-04-26 01:20 33.53276 71.76172 24577 ft 409 kts 268°
2026-04-26 01:21 33.53072 71.72760 25009 ft 411 kts 268°
2026-04-26 01:21 33.52866 71.69342 25447 ft 413 kts 268°
2026-04-26 01:21 33.52658 71.65896 25860 ft 415 kts 268°
2026-04-26 01:21 33.52450 71.62480 26263 ft 417 kts 268°
2026-04-26 01:22 33.52236 71.58965 26673 ft 419 kts 268°
2026-04-26 01:22 33.52025 71.55514 27063 ft 421 kts 268°
2026-04-26 01:22 33.51808 71.52000 27457 ft 423 kts 268°
2026-04-26 01:22 33.51591 71.48474 27852 ft 425 kts 268°
2026-04-26 01:23 33.51374 71.44929 28223 ft 427 kts 268°
2026-04-26 01:23 33.51156 71.41368 28596 ft 429 kts 268°
2026-04-26 01:23 33.50936 71.37790 28974 ft 431 kts 268°
2026-04-26 01:23 33.50716 71.34243 29330 ft 433 kts 268°
2026-04-26 01:24 33.50492 71.30631 29675 ft 435 kts 268°
2026-04-26 01:24 33.50266 71.27017 30042 ft 437 kts 268°
2026-04-26 01:24 33.50038 71.23383 30402 ft 437 kts 268°
2026-04-26 01:24 33.49810 71.19755 30810 ft 436 kts 268°
2026-04-26 01:25 33.49579 71.16101 31230 ft 435 kts 268°
2026-04-26 01:25 33.49352 71.12538 31648 ft 434 kts 268°
2026-04-26 01:25 33.49122 71.08938 32103 ft 432 kts 268°
2026-04-26 01:25 33.48748 71.05365 32553 ft 434 kts 258°
2026-04-26 01:26 33.47639 71.02006 33023 ft 439 kts 244°
2026-04-26 01:26 33.45772 70.99086 33496 ft 446 kts 229°
2026-04-26 01:26 33.43312 70.96784 33904 ft 454 kts 218°
2026-04-26 01:26 33.40659 70.94731 34241 ft 454 kts 218°
2026-04-26 01:27 33.37998 70.92695 34579 ft 453 kts 218°
2026-04-26 01:27 33.35330 70.90682 34935 ft 452 kts 218°
2026-04-26 01:27 33.32671 70.88693 35259 ft 451 kts 218°
2026-04-26 01:27 33.30009 70.86707 35608 ft 449 kts 218°
2026-04-26 01:28 33.27359 70.84733 35954 ft 447 kts 218°
2026-04-26 01:28 33.24724 70.82773 36391 ft 444 kts 218°
2026-04-26 01:28 33.22104 70.80825 36726 ft 442 kts 218°
2026-04-26 01:28 33.19505 70.78892 36999 ft 441 kts 217°
2026-04-26 01:29 33.16899 70.76955 37248 ft 440 kts 218°
2026-04-26 01:29 33.14295 70.75023 37480 ft 440 kts 217°
2026-04-26 01:29 33.11724 70.73116 37760 ft 438 kts 217°
2026-04-26 01:29 33.09131 70.71194 37908 ft 438 kts 217°
2026-04-26 01:30 33.03964 70.67369 37870 ft 435 kts 217°
2026-04-26 01:30 32.98805 70.63555 37886 ft 436 kts 217°
2026-04-26 01:31 32.93659 70.59735 37881 ft 435 kts 218°
2026-04-26 01:31 32.88571 70.55828 37883 ft 436 kts 218°
2026-04-26 01:32 32.83468 70.51927 37875 ft 434 kts 218°
2026-04-26 01:32 32.78436 70.48087 37876 ft 433 kts 218°
2026-04-26 01:33 32.73359 70.44218 37886 ft 433 kts 218°
2026-04-26 01:33 32.68289 70.40360 37884 ft 433 kts 218°
2026-04-26 01:34 32.63173 70.36560 37858 ft 435 kts 215°
2026-04-26 01:34 32.57932 70.32916 37900 ft 438 kts 216°
2026-04-26 01:35 32.52678 70.29242 37901 ft 438 kts 216°
2026-04-26 01:35 32.47435 70.25578 37888 ft 438 kts 216°
2026-04-26 01:36 32.42217 70.21936 37898 ft 438 kts 216°
2026-04-26 01:37 32.34389 70.16402 38000 ft 436 kts 216°
2026-04-26 01:37 32.31800 70.14533 37761 ft 433 kts 217°
2026-04-26 01:37 32.29245 70.12677 37871 ft 432 kts 216°
2026-04-26 01:38 32.24096 70.08969 37908 ft 435 kts 217°
2026-04-26 01:38 32.18945 70.05256 37933 ft 434 kts 216°
2026-04-26 01:39 32.13771 70.01539 37915 ft 434 kts 216°
2026-04-26 01:39 32.09474 69.98458 37916 ft 435 kts 216°
2026-04-26 01:40 32.04295 69.94747 37899 ft 435 kts 216°
2026-04-26 01:40 31.98266 69.90435 37926 ft 436 kts 216°
2026-04-26 01:41 31.93961 69.87358 37939 ft 435 kts 216°
2026-04-26 01:41 31.88796 69.83673 37952 ft 433 kts 216°
2026-04-26 01:42 31.83643 69.80001 37936 ft 432 kts 216°
2026-04-26 01:42 31.78514 69.76350 37947 ft 431 kts 216°
2026-04-26 01:43 31.73374 69.72698 37962 ft 432 kts 215°
2026-04-26 01:43 31.68201 69.69103 37945 ft 428 kts 216°
2026-04-26 01:43 31.65667 69.67259 38088 ft 430 kts 216°
2026-04-26 01:44 31.63103 69.65419 37977 ft 432 kts 215°
2026-04-26 01:44 31.57975 69.61781 37994 ft 432 kts 215°
2026-04-26 01:45 31.52858 69.58163 37993 ft 432 kts 215°
2026-04-26 01:45 31.47717 69.54533 37982 ft 431 kts 215°
2026-04-26 01:46 31.42567 69.50900 38000 ft 432 kts 215°
2026-04-26 01:46 31.37408 69.47264 38001 ft 432 kts 216°
2026-04-26 01:46 31.35074 69.45126 37974 ft 424 kts 230°
2026-04-26 01:47 31.33074 69.42597 38003 ft 425 kts 229°
2026-04-26 01:47 31.29012 69.37556 38020 ft 426 kts 230°
2026-04-26 01:48 31.25016 69.32499 38012 ft 425 kts 230°
2026-04-26 01:48 31.21008 69.27404 38018 ft 425 kts 230°
2026-04-26 01:49 31.17000 69.22314 38021 ft 425 kts 230°
2026-04-26 01:49 31.12989 69.17225 38018 ft 426 kts 230°
2026-04-26 01:50 31.08960 69.12121 38023 ft 427 kts 230°
2026-04-26 01:50 31.04953 69.07053 38023 ft 427 kts 230°
2026-04-26 01:51 31.00926 69.01964 38025 ft 427 kts 230°
2026-04-26 01:51 30.96870 68.96847 38018 ft 427 kts 230°
2026-04-26 01:52 30.92855 68.91789 38050 ft 428 kts 230°
2026-04-26 01:52 30.88813 68.86701 38022 ft 427 kts 230°
2026-04-26 01:53 30.84774 68.81626 38025 ft 426 kts 230°
2026-04-26 01:53 30.80736 68.76558 38008 ft 427 kts 230°
2026-04-26 01:54 30.76694 68.71493 38018 ft 428 kts 230°
2026-04-26 01:54 30.72671 68.66458 38017 ft 427 kts 230°
2026-04-26 01:55 30.68621 68.61394 38017 ft 427 kts 230°
2026-04-26 01:55 30.64574 68.56342 38020 ft 427 kts 230°
2026-04-26 01:56 30.60520 68.51287 38018 ft 427 kts 230°
2026-04-26 01:56 30.56477 68.46254 38024 ft 426 kts 230°
2026-04-26 01:57 30.52427 68.41218 38022 ft 426 kts 230°
2026-04-26 01:57 30.48400 68.36218 38000 ft 426 kts 230°
2026-04-26 01:58 30.44338 68.31179 38024 ft 428 kts 230°
2026-04-26 01:58 30.40270 68.26142 38003 ft 428 kts 230°
2026-04-26 01:59 30.36202 68.21109 38012 ft 428 kts 230°
2026-04-26 01:59 30.32125 68.16071 37999 ft 428 kts 230°
2026-04-26 02:00 30.28051 68.11042 37978 ft 429 kts 230°
2026-04-26 02:00 30.23992 68.06044 37977 ft 428 kts 230°
2026-04-26 02:01 30.19912 68.01022 37978 ft 428 kts 230°
2026-04-26 02:01 30.15834 67.96010 38037 ft 429 kts 230°
2026-04-26 02:01 30.13784 67.93492 37906 ft 429 kts 230°
2026-04-26 02:02 30.11746 67.90991 37925 ft 428 kts 230°
2026-04-26 02:02 30.07661 67.85950 37931 ft 429 kts 230°
2026-04-26 02:03 30.03586 67.80903 37927 ft 429 kts 230°
2026-04-26 02:03 29.99535 67.75893 37892 ft 429 kts 230°
2026-04-26 02:04 29.95462 67.70863 37894 ft 429 kts 230°
2026-04-26 02:04 29.91386 67.65835 37895 ft 429 kts 230°
2026-04-26 02:05 29.87303 67.60806 37860 ft 429 kts 230°
2026-04-26 02:05 29.83219 67.55780 37875 ft 429 kts 230°
2026-04-26 02:06 29.79129 67.50756 37876 ft 430 kts 230°
2026-04-26 02:06 29.75032 67.45726 37887 ft 431 kts 230°
2026-04-26 02:07 29.70965 67.40719 37923 ft 431 kts 230°
2026-04-26 02:07 29.66875 67.35687 37919 ft 431 kts 230°
2026-04-26 02:08 29.62782 67.30658 37895 ft 431 kts 230°
2026-04-26 02:08 29.58678 67.25621 37937 ft 431 kts 230°
2026-04-26 02:09 29.54577 67.20595 37966 ft 432 kts 230°
2026-04-26 02:09 29.50474 67.15573 37967 ft 430 kts 230°
2026-04-26 02:10 29.46382 67.10572 37965 ft 430 kts 229°
2026-04-26 02:10 29.42271 67.05552 37981 ft 432 kts 229°
2026-04-26 02:11 29.38159 67.00538 38026 ft 432 kts 229°
2026-04-26 02:11 29.34047 66.95529 37982 ft 431 kts 229°
2026-04-26 02:12 29.29925 66.90518 38019 ft 432 kts 229°
2026-04-26 02:12 29.25812 66.85522 38028 ft 431 kts 229°
2026-04-26 02:13 29.21686 66.80517 38034 ft 432 kts 229°
2026-04-26 02:13 29.17567 66.75525 38047 ft 432 kts 229°
2026-04-26 02:14 29.13458 66.70552 38041 ft 432 kts 229°
2026-04-26 02:14 29.09335 66.65569 38045 ft 432 kts 229°
2026-04-26 02:15 29.05203 66.60580 38050 ft 431 kts 229°
2026-04-26 02:15 29.01086 66.55597 38051 ft 431 kts 229°
2026-04-26 02:16 28.96981 66.50630 38042 ft 430 kts 229°
2026-04-26 02:16 28.92899 66.45696 38036 ft 430 kts 229°
2026-04-26 02:17 28.88794 66.40740 38039 ft 430 kts 229°
2026-04-26 02:17 28.84686 66.35787 38030 ft 430 kts 229°
2026-04-26 02:18 28.80569 66.30830 38033 ft 430 kts 229°
2026-04-26 02:18 28.76455 66.25881 38025 ft 431 kts 229°
2026-04-26 02:19 28.72315 66.20908 38021 ft 431 kts 229°
2026-04-26 02:19 28.68208 66.15981 38020 ft 431 kts 229°
2026-04-26 02:20 28.64079 66.11033 38000 ft 431 kts 229°
2026-04-26 02:20 28.59942 66.06082 38000 ft 431 kts 229°
2026-04-26 02:21 28.55804 66.01134 38006 ft 431 kts 229°
2026-04-26 02:21 28.51672 65.96202 37978 ft 431 kts 229°
2026-04-26 02:22 28.47532 65.91265 37985 ft 430 kts 229°
2026-04-26 02:22 28.43419 65.86367 37953 ft 428 kts 229°
2026-04-26 02:23 28.39294 65.81458 37957 ft 430 kts 229°
2026-04-26 02:23 28.35187 65.76578 37945 ft 429 kts 229°
2026-04-26 02:24 28.31060 65.71681 37937 ft 430 kts 229°
2026-04-26 02:24 28.26922 65.66777 37933 ft 430 kts 229°
2026-04-26 02:25 28.22789 65.61884 37928 ft 430 kts 229°
2026-04-26 02:25 28.18653 65.56992 37923 ft 428 kts 229°
2026-04-26 02:26 28.14533 65.52125 37924 ft 428 kts 229°
2026-04-26 02:26 28.10426 65.47279 37904 ft 429 kts 229°
2026-04-26 02:27 28.06289 65.42405 37916 ft 429 kts 229°
2026-04-26 02:27 28.02136 65.37518 37917 ft 430 kts 229°
2026-04-26 02:28 27.97989 65.32643 37902 ft 430 kts 229°
2026-04-26 02:28 27.93831 65.27761 37905 ft 431 kts 229°
2026-04-26 02:29 27.89691 65.22906 37899 ft 431 kts 229°
2026-04-26 02:29 27.85524 65.18025 37896 ft 431 kts 229°
2026-04-26 02:30 27.82035 65.13942 37897 ft 431 kts 229°
2026-04-26 02:30 27.77892 65.09099 37911 ft 431 kts 229°
2026-04-26 02:31 27.73727 65.04237 37907 ft 431 kts 229°
2026-04-26 02:31 27.69543 64.99357 37910 ft 433 kts 229°
2026-04-26 02:32 27.65351 64.94475 37917 ft 434 kts 229°
2026-04-26 02:32 27.61151 64.89588 37918 ft 434 kts 229°
2026-04-26 02:33 27.56942 64.84698 37923 ft 434 kts 229°
2026-04-26 02:33 27.52738 64.79817 37916 ft 434 kts 229°
2026-04-26 02:34 27.48525 64.74933 37943 ft 434 kts 229°
2026-04-26 02:34 27.44339 64.70086 37930 ft 434 kts 229°
2026-04-26 02:35 27.40130 64.65218 37926 ft 434 kts 229°
2026-04-26 02:35 27.35914 64.60348 37944 ft 435 kts 228°
2026-04-26 02:36 27.31679 64.55460 37943 ft 436 kts 228°
2026-04-26 02:36 27.27445 64.50580 37946 ft 435 kts 228°
2026-04-26 02:37 27.23215 64.45711 37947 ft 435 kts 228°
2026-04-26 02:37 27.18984 64.40845 37946 ft 435 kts 228°
2026-04-26 02:38 27.14774 64.36010 37947 ft 435 kts 228°
2026-04-26 02:38 27.10535 64.31147 37949 ft 437 kts 228°
2026-04-26 02:39 27.06281 64.26271 37947 ft 436 kts 228°
2026-04-26 02:39 27.02025 64.21399 37935 ft 437 kts 228°
2026-04-26 02:40 26.97767 64.16528 37942 ft 438 kts 228°
2026-04-26 02:40 26.93486 64.11671 37954 ft 437 kts 228°
2026-04-26 02:41 26.89223 64.06854 37945 ft 437 kts 228°
2026-04-26 02:41 26.84940 64.02018 37938 ft 437 kts 228°
2026-04-26 02:42 26.83943 64.00893 37938 ft 437 kts 228°
2026-04-26 02:42 26.81216 63.97817 37934 ft 437 kts 228°
2026-04-26 02:43 26.74784 63.90573 37938 ft 437 kts 228°
2026-04-26 02:43 26.70490 63.85742 37926 ft 437 kts 228°
2026-04-26 02:44 26.66200 63.80922 37917 ft 438 kts 228°
2026-04-26 02:44 26.61889 63.76084 37922 ft 439 kts 228°
2026-04-26 02:45 26.57584 63.71257 37917 ft 439 kts 228°
2026-04-26 02:45 26.53294 63.66454 37911 ft 439 kts 228°
2026-04-26 02:46 26.48982 63.61631 37913 ft 439 kts 228°
2026-04-26 02:46 26.44661 63.56803 37911 ft 439 kts 228°
2026-04-26 02:47 26.40338 63.51979 37910 ft 439 kts 228°
2026-04-26 02:47 26.36021 63.47166 37900 ft 439 kts 227°
2026-04-26 02:48 26.31693 63.42347 37886 ft 440 kts 227°
2026-04-26 02:48 26.27349 63.37516 37900 ft 442 kts 227°
2026-04-26 02:49 26.23023 63.32709 37881 ft 442 kts 227°
2026-04-26 02:49 26.18672 63.27882 37882 ft 442 kts 227°
2026-04-26 02:50 26.14321 63.23058 37883 ft 442 kts 227°
2026-04-26 02:50 26.09963 63.18233 37866 ft 442 kts 227°
2026-04-26 02:51 26.05609 63.13416 37871 ft 442 kts 227°
2026-04-26 02:51 26.01246 63.08594 37874 ft 443 kts 228°
2026-04-26 02:52 25.96869 63.03746 37849 ft 444 kts 228°
2026-04-26 02:52 25.92478 62.98886 37853 ft 446 kts 227°
2026-04-26 02:53 25.88089 62.94034 37855 ft 445 kts 227°
2026-04-26 02:53 25.83691 62.89176 37870 ft 446 kts 227°
2026-04-26 02:54 25.79297 62.84328 37868 ft 446 kts 227°
2026-04-26 02:54 25.74899 62.79481 37860 ft 446 kts 228°
2026-04-26 02:55 25.70514 62.74654 37847 ft 446 kts 228°
2026-04-26 02:55 25.66099 62.69800 37842 ft 446 kts 228°
2026-04-26 02:56 25.61682 62.64948 37845 ft 447 kts 228°
2026-04-26 02:56 25.57263 62.60100 37844 ft 447 kts 228°
2026-04-26 02:57 25.52870 62.55285 37848 ft 447 kts 228°
2026-04-26 02:57 25.48454 62.50451 37857 ft 447 kts 229°
2026-04-26 02:58 25.44030 62.45612 37851 ft 447 kts 229°
2026-04-26 02:58 25.39597 62.40770 37861 ft 447 kts 229°
2026-04-26 02:59 25.35170 62.35940 37858 ft 447 kts 229°
2026-04-26 02:59 25.30742 62.31113 37840 ft 447 kts 229°
2026-04-26 03:00 25.26303 62.26279 37825 ft 449 kts 229°
2026-04-26 03:00 25.21867 62.21455 37849 ft 451 kts 229°
2026-04-26 03:01 25.17398 62.16600 37840 ft 451 kts 229°
2026-04-26 03:01 25.12918 62.11738 37844 ft 451 kts 229°
2026-04-26 03:02 25.08445 62.06889 37840 ft 451 kts 229°
2026-04-26 03:02 25.03961 62.02034 37843 ft 451 kts 229°
2026-04-26 03:03 24.99483 61.97189 37850 ft 451 kts 229°
2026-04-26 03:03 24.95001 61.92346 37845 ft 451 kts 229°
2026-04-26 03:04 24.90506 61.87494 37836 ft 454 kts 229°
2026-04-26 03:04 24.85979 61.82613 37839 ft 455 kts 229°
2026-04-26 03:05 24.81485 61.77772 37840 ft 455 kts 229°
2026-04-26 03:05 24.76950 61.72894 37840 ft 455 kts 229°
2026-04-26 03:06 24.72422 61.68026 37842 ft 455 kts 229°
2026-04-26 03:06 24.67893 61.63164 37844 ft 455 kts 229°
2026-04-26 03:07 24.63361 61.58304 37848 ft 455 kts 229°
2026-04-26 03:07 24.58819 61.53438 37845 ft 455 kts 229°
2026-04-26 03:08 24.54274 61.48574 37826 ft 456 kts 229°
2026-04-26 03:08 24.49718 61.43701 37848 ft 458 kts 229°
2026-04-26 03:09 24.45150 61.38822 37842 ft 458 kts 229°
2026-04-26 03:09 24.40917 61.33692 37826 ft 446 kts 245°
2026-04-26 03:10 24.39720 61.30590 37849 ft 437 kts 259°
2026-04-26 03:10 24.38931 61.27406 37837 ft 440 kts 259°
2026-04-26 03:10 24.37455 61.20899 37846 ft 439 kts 261°
2026-04-26 03:11 24.36068 61.14382 37846 ft 439 kts 261°
2026-04-26 03:11 24.34701 61.07844 37846 ft 439 kts 261°
2026-04-26 03:12 24.33335 61.01313 37846 ft 439 kts 262°
2026-04-26 03:12 24.31966 60.94782 37844 ft 439 kts 261°
2026-04-26 03:13 24.30597 60.88262 37845 ft 439 kts 261°
2026-04-26 03:13 24.29222 60.81730 37846 ft 439 kts 261°
2026-04-26 03:14 24.27855 60.75254 37846 ft 439 kts 261°
2026-04-26 03:14 24.26477 60.68737 37845 ft 439 kts 261°
2026-04-26 03:15 24.25096 60.62219 37848 ft 439 kts 261°
2026-04-26 03:15 24.23714 60.55712 37849 ft 439 kts 261°
2026-04-26 03:16 24.22326 60.49195 37848 ft 439 kts 261°
2026-04-26 03:16 24.21166 60.43754 37851 ft 438 kts 262°
2026-04-26 03:17 24.19790 60.37315 37846 ft 436 kts 262°
2026-04-26 03:17 24.18405 60.30853 37848 ft 436 kts 262°
2026-04-26 03:18 24.17016 60.24380 37848 ft 436 kts 262°
2026-04-26 03:18 24.15624 60.17911 37848 ft 436 kts 262°
2026-04-26 03:19 24.14233 60.11461 37846 ft 435 kts 262°
2026-04-26 03:19 24.12849 60.05053 37852 ft 435 kts 262°
2026-04-26 03:20 24.11452 59.98603 37854 ft 435 kts 261°
2026-04-26 03:20 24.10055 59.92165 37855 ft 435 kts 261°
2026-04-26 03:21 24.08652 59.85717 37848 ft 435 kts 261°
2026-04-26 03:21 24.07247 59.79269 37850 ft 435 kts 261°
2026-04-26 03:22 24.05842 59.72834 37856 ft 435 kts 261°
2026-04-26 03:22 24.04434 59.66401 37858 ft 435 kts 261°
2026-04-26 03:23 24.03023 59.59968 37855 ft 435 kts 261°
2026-04-26 03:23 24.01611 59.53547 37857 ft 432 kts 262°
2026-04-26 03:24 24.00204 59.47157 37863 ft 433 kts 261°
2026-04-26 03:24 23.98793 59.40765 37856 ft 433 kts 261°
2026-04-26 03:25 23.97387 59.34407 37859 ft 432 kts 261°
2026-04-26 03:25 23.95974 59.28028 37863 ft 430 kts 262°
2026-04-26 03:26 23.94562 59.21663 37864 ft 429 kts 262°
2026-04-26 03:26 23.93365 59.15302 37852 ft 421 kts 274°
2026-04-26 03:27 23.93670 59.12155 37862 ft 412 kts 288°
2026-04-26 03:27 23.94458 59.09140 37856 ft 413 kts 289°
2026-04-26 03:27 23.96202 59.03185 37867 ft 413 kts 291°
2026-04-26 03:28 23.98071 58.97218 37857 ft 412 kts 292°
2026-04-26 03:28 23.99945 58.91346 37866 ft 411 kts 292°
2026-04-26 03:29 24.01832 58.85444 37864 ft 411 kts 291°
2026-04-26 03:29 24.03721 58.79529 37871 ft 411 kts 291°
2026-04-26 03:30 24.05603 58.73629 37867 ft 411 kts 291°
2026-04-26 03:30 24.07487 58.67713 37866 ft 411 kts 291°
2026-04-26 03:31 24.09369 58.61794 37863 ft 411 kts 291°
2026-04-26 03:31 24.11248 58.55877 37872 ft 411 kts 291°
2026-04-26 03:32 24.13122 58.49963 37869 ft 411 kts 291°
2026-04-26 03:32 24.14985 58.44081 37866 ft 411 kts 291°
2026-04-26 03:33 24.16857 58.38155 37873 ft 411 kts 291°
2026-04-26 03:33 24.18726 58.32233 37876 ft 412 kts 291°
2026-04-26 03:34 24.20596 58.26299 37870 ft 412 kts 291°
2026-04-26 03:34 24.22451 58.20403 37875 ft 412 kts 291°
2026-04-26 03:35 24.24313 58.14477 37873 ft 412 kts 291°
2026-04-26 03:35 24.26176 58.08538 37875 ft 412 kts 291°
2026-04-26 03:36 24.28034 58.02604 37876 ft 412 kts 291°
2026-04-26 03:36 24.29893 57.96661 37875 ft 412 kts 291°
2026-04-26 03:37 24.31746 57.90726 37875 ft 411 kts 291°
2026-04-26 03:37 24.33600 57.84779 37876 ft 412 kts 291°
2026-04-26 03:38 24.35444 57.78853 37876 ft 412 kts 291°
2026-04-26 03:38 24.37296 57.72895 37872 ft 412 kts 291°
2026-04-26 03:39 24.39127 57.66994 37876 ft 412 kts 291°
2026-04-26 03:39 24.40968 57.61051 37882 ft 409 kts 291°
2026-04-26 03:40 24.42794 57.55152 37874 ft 408 kts 291°
2026-04-26 03:40 24.44619 57.49242 37879 ft 408 kts 291°
2026-04-26 03:41 24.46438 57.43341 37887 ft 408 kts 291°
2026-04-26 03:41 24.48257 57.37435 37737 ft 404 kts 291°
2026-04-26 03:42 24.49153 57.34517 37107 ft 402 kts 290°
2026-04-26 03:42 24.50042 57.31625 36683 ft 396 kts 290°
2026-04-26 03:42 24.50912 57.28791 36314 ft 391 kts 290°
2026-04-26 03:42 24.51797 57.25910 35848 ft 403 kts 289°
2026-04-26 03:43 24.52697 57.22975 35121 ft 409 kts 289°
2026-04-26 03:43 24.53600 57.20027 34416 ft 415 kts 288°
2026-04-26 03:43 24.54528 57.16996 33649 ft 421 kts 288°
2026-04-26 03:43 24.55465 57.13931 32764 ft 424 kts 288°
2026-04-26 03:44 24.56407 57.10848 31958 ft 429 kts 287°
2026-04-26 03:44 24.57364 57.07717 31163 ft 434 kts 287°
2026-04-26 03:44 24.58329 57.04554 30327 ft 437 kts 286°
2026-04-26 03:44 24.59299 57.01373 29364 ft 440 kts 286°
2026-04-26 03:45 24.60274 56.98176 28378 ft 442 kts 286°
2026-04-26 03:45 24.61249 56.94974 27668 ft 442 kts 286°
2026-04-26 03:45 24.62228 56.91752 26973 ft 447 kts 286°
2026-04-26 03:45 24.63215 56.88507 26300 ft 447 kts 286°
2026-04-26 03:46 24.64209 56.85284 25617 ft 442 kts 289°
2026-04-26 03:46 24.65656 56.82289 24816 ft 445 kts 299°
2026-04-26 03:46 24.67252 56.79385 24187 ft 441 kts 298°
2026-04-26 03:47 24.70396 56.73645 22759 ft 436 kts 298°
2026-04-26 03:47 24.71942 56.70839 22093 ft 432 kts 298°
2026-04-26 03:47 24.73495 56.68021 21435 ft 429 kts 299°
2026-04-26 03:47 24.75031 56.65234 20792 ft 425 kts 299°
2026-04-26 03:48 24.76561 56.62455 20159 ft 423 kts 299°
2026-04-26 03:48 24.78077 56.59699 19533 ft 421 kts 299°
2026-04-26 03:48 24.79592 56.56945 18911 ft 419 kts 299°
2026-04-26 03:48 24.81101 56.54200 18281 ft 418 kts 299°
2026-04-26 03:49 24.82603 56.51467 17585 ft 416 kts 299°
2026-04-26 03:49 24.84091 56.48757 16920 ft 414 kts 299°
2026-04-26 03:49 24.85573 56.46056 16317 ft 410 kts 299°
2026-04-26 03:49 24.87039 56.43379 15651 ft 408 kts 298°
2026-04-26 03:50 24.88066 56.40486 15028 ft 404 kts 281°
2026-04-26 03:50 24.88281 56.37425 14490 ft 398 kts 267°
2026-04-26 03:50 24.88186 56.34394 13963 ft 395 kts 267°
2026-04-26 03:50 24.88065 56.31413 13735 ft 384 kts 266°
2026-04-26 03:51 24.87931 56.28516 13533 ft 373 kts 266°
2026-04-26 03:51 24.88047 56.25704 13298 ft 364 kts 282°
2026-04-26 03:51 24.88992 56.23160 13125 ft 356 kts 299°
2026-04-26 03:51 24.90174 56.20857 12990 ft 344 kts 297°
2026-04-26 03:52 24.91326 56.18584 12812 ft 335 kts 298°
2026-04-26 03:52 24.92453 56.16378 12659 ft 326 kts 298°
2026-04-26 03:52 24.93551 56.14234 12506 ft 317 kts 298°
2026-04-26 03:52 24.94618 56.12157 12346 ft 308 kts 298°
2026-04-26 03:53 24.95658 56.10133 12213 ft 299 kts 298°
2026-04-26 03:53 24.96664 56.08171 12062 ft 291 kts 298°
2026-04-26 03:53 24.97748 56.06325 11869 ft 285 kts 309°
2026-04-26 03:53 24.99071 56.04715 11616 ft 281 kts 310°
2026-04-26 03:54 25.00379 56.03127 11354 ft 278 kts 310°
2026-04-26 03:54 25.01671 56.01552 11074 ft 276 kts 310°
2026-04-26 03:54 25.02947 55.99991 10778 ft 274 kts 310°
2026-04-26 03:54 25.04219 55.98435 10520 ft 272 kts 310°
2026-04-26 03:55 25.05401 55.96829 10209 ft 269 kts 296°
2026-04-26 03:55 25.05903 55.94872 9904 ft 265 kts 271°
2026-04-26 03:55 25.05875 55.92856 9634 ft 261 kts 269°
2026-04-26 03:55 25.05832 55.90860 9356 ft 259 kts 268°
2026-04-26 03:56 25.05776 55.88884 9076 ft 257 kts 267°
2026-04-26 03:56 25.05366 55.86994 8763 ft 256 kts 243°
2026-04-26 03:56 25.04234 55.85522 8477 ft 257 kts 219°
2026-04-26 03:56 25.02747 55.84421 8228 ft 257 kts 221°
2026-04-26 03:57 25.01651 55.82899 7925 ft 255 kts 248°
2026-04-26 03:57 25.01305 55.81007 7644 ft 253 kts 273°
2026-04-26 03:57 25.01722 55.79132 7380 ft 254 kts 295°
2026-04-26 03:57 25.02585 55.77424 7136 ft 254 kts 299°
2026-04-26 03:58 25.03477 55.75739 6859 ft 254 kts 300°
2026-04-26 03:58 25.04384 55.74064 6561 ft 254 kts 300°
2026-04-26 03:58 25.05283 55.72421 6285 ft 251 kts 301°
2026-04-26 03:58 25.06186 55.70787 5998 ft 247 kts 301°
2026-04-26 03:59 25.07073 55.69188 5714 ft 242 kts 301°
2026-04-26 03:59 25.07947 55.67616 5422 ft 238 kts 302°
2026-04-26 03:59 25.08804 55.66078 5167 ft 232 kts 302°
2026-04-26 03:59 25.09639 55.64579 4929 ft 226 kts 302°
2026-04-26 04:00 25.10454 55.63116 4673 ft 221 kts 302°
2026-04-26 04:00 25.11256 55.61685 4401 ft 216 kts 303°
2026-04-26 04:00 25.12058 55.60299 4127 ft 213 kts 303°
2026-04-26 04:00 25.12833 55.58918 3854 ft 209 kts 302°
2026-04-26 04:01 25.13583 55.57566 3598 ft 204 kts 302°
2026-04-26 04:01 25.14312 55.56249 3352 ft 197 kts 302°
2026-04-26 04:01 25.15006 55.54997 3131 ft 191 kts 302°
2026-04-26 04:01 25.15691 55.53763 2897 ft 185 kts 303°
2026-04-26 04:02 25.16354 55.52563 2652 ft 181 kts 303°
2026-04-26 04:02 25.16992 55.51410 2415 ft 170 kts 303°
2026-04-26 04:02 25.17575 55.50357 2236 ft 151 kts 303°
2026-04-26 04:02 25.18098 55.49411 2052 ft 140 kts 303°
2026-04-26 04:03 25.18597 55.48510 1868 ft 135 kts 303°
2026-04-26 04:03 25.19085 55.47628 1714 ft 135 kts 303°
2026-04-26 04:03 25.19573 55.46746 1523 ft 134 kts 303°
2026-04-26 04:03 25.20062 55.45861 1341 ft 136 kts 303°
2026-04-26 04:04 25.20391 55.45267 1229 ft 137 kts 302°
2026-04-26 04:04 25.20889 55.44364 1046 ft 138 kts 302°
2026-04-26 04:04 25.21394 55.43455 879 ft 139 kts 302°
2026-04-26 04:04 25.21905 55.42531 706 ft 142 kts 300°
2026-04-26 04:05 25.22436 55.41558 536 ft 151 kts 300°
2026-04-26 04:05 25.23169 55.40246 256 ft 151 kts 300°
2026-04-26 04:05 25.23536 55.39582 65 ft 147 kts 300°
2026-04-26 04:05 25.24033 55.38686 27 ft 121 kts 302°
2026-04-26 04:06 25.24366 55.38088 26 ft 61 kts 301°
2026-04-26 04:06 25.24544 55.37770 27 ft 35 kts 303°
2026-04-26 04:06 25.24691 55.37604 24 ft 24 kts 326°
2026-04-26 04:06 25.24813 55.37526 24 ft 18 kts 331°
2026-04-26 04:07 25.24910 55.37456 24 ft 12 kts 315°
2026-04-26 04:07 25.24966 55.37375 28 ft 15 kts 302°
2026-04-26 04:07 25.25024 55.37271 25 ft 17 kts 301°
2026-04-26 04:07 25.25091 55.37189 25 ft 11 kts 344°
2026-04-26 04:08 25.25148 55.37205 27 ft 9 kts 31°
2026-04-26 04:08 25.25211 55.37249 25 ft 12 kts 33°
2026-04-26 04:08 25.25294 55.37306 27 ft 15 kts 31°
2026-04-26 04:08 25.25376 55.37341 28 ft 11 kts 343°
2026-04-26 04:09 25.25430 55.37270 27 ft 14 kts 300°
2026-04-26 04:09 25.25483 55.37173 25 ft 16 kts 301°
2026-04-26 04:09 25.25546 55.37059 25 ft 19 kts 301°
2026-04-26 04:09 25.25619 55.36932 25 ft 21 kts 301°
2026-04-26 04:10 25.25693 55.36859 27 ft 12 kts
2026-04-26 04:10 25.25771 55.36829 27 ft 14 kts 302°
2026-04-26 04:10 25.25826 55.36729 25 ft 16 kts 301°
2026-04-26 04:10 25.25889 55.36613 25 ft 19 kts 301°
2026-04-26 04:11 25.25962 55.36482 27 ft 19 kts 301°
2026-04-26 04:11 25.25998 55.36446 25 ft 3 kts 13°
2026-04-26 04:11 25.26019 55.36465 27 ft 5 kts 36°
2026-04-26 04:11 25.26046 55.36483 25 ft 1 kts 31°
2026-04-26 04:12 25.26061 55.36493 25 ft 0 kts 31°